COSMOS 2499 DEB, 60613

Orbit data source: Space-Track

COSMOS 2499 DEB, 60613 is space debris in LEO originally from a launch on Fri, 23 May 2014 UTC launched from the Plesetsk Missile And Space Complex (PKMTR). Debris objects in space refer to the collection of defunct objects orbiting the Earth. Examples of debris include non-operational satellites, rocket bodies, and fragments generated from explosions, collisions, or faulty payload assembly.

Loading next visibility...
Identifier
60613, 2014-028BZ
Orbit
LEO
Country
Flag of CISCIS
Related business
Manufacturer
TsNIIKhM
Mission
Spacecraft
Bus & Motor
Unknown
Mass
Unknown
Launch date (UTC)
2014-05-23 (12 years ago)
Launch vehicle
Unknown
Launch site
Plesetsk Missile And Space Complex (PKMTR)
Object type
Payload
Rocket body
Debris
Shape & HBR
Unknown shape, 0.1 m
Radar Cross Section
Small (<0.1 m²)

Expand to show TLE details & history
Last TLE update: 3 days ago

TLE from 3 days ago
0 COSMOS 2499 DEB
1 60613U 14028BZ  25347.32210397  .00002907  00000-0  88224-2 0  9993
2 60613  82.4868   7.1198 0256561  14.5452 346.2864 12.95549073122795
Epoch: 2025-12-13T07:43Z
TLE epoch observation values (Epoch: 2025-12-13T07:43:49.783Z)
Latitude
-0.00002°
Longitude
168.91133°
Altitude
1,091.749 km
Speed
7.397 km/s
True Right ascension
00h 28m 28s
True Declination
0° 00' 00"
Sunlit
Object was in daylight at epoch
Visualization orbit readout
Latitude
Unknown
Longitude
Unknown
Altitude
Unknown
Speed
Unknown
Apparent Right ascension
Unknown
Apparent Declination
Unknown
Sunlit
N/A
Visualization observer readout
Local Sidereal Time
12:47:01
Azimuth
Unknown
Elevation
Unknown
Doppler factor
Unknown
Orbital elements
Apogee altitude
1,473.251 km
Perigee altitude
1,080.457 km
Semi-major axis
7,654.991 km
Eccentricity
0.02566
Inclination
82.4868°
RAAN
7.1198°
Arg. of periapsis
14.5452°
True anomaly
345.56706°
Mean anomaly
346.2864°
Eccentric anomaly
345.92901°
Mean motion
3.24061 °/min
Orbital period
111.09 mins
BSTAR
0.0088224
Loading maneuver chart data...
Computing Atmospheric mass density...
Loading historical data...
Loading historical data...
Loading historical data...
Loading historical data...
Loading historical data...
Loading historical data...
Loading historical data...

Documentation

Showing up to 5 results
|